Flag for Lithuania Weather past 2 weeks in Kaunas, Lithuania

27 °F

Ice fog.

Feels Like: 18 °F
Forecast: 30 / 37 °F
Wind: 8 mph from South

Location: Kaunas

Current Time: Nov 28, 2015 at 10:09:41 AM

Latest Report: Nov 28, 2015 at 8:20 AM

Visibility: 2 mi

Pressure: 29.95 "Hg

Humidity: 86%

Dew point: 23 °F

Location of KaunasLocation

Historic Weather in Kaunas — Graph


Kaunas temperature yesterday

Maximum temperature yesterday: 32 °F (at 12:20 PM)
Minimum temperature yesterday: 27 °F (at 1:20 AM)
Average temperature yesterday: 30 °F

Past Weeks' High & Low Weather Summary

High54 °F (Nov 18, 1:50 PM)100% (Nov 13, 8:50 AM)30.18 "Hg (Nov 13, 8:50 AM)
Low25 °F (Nov 28, 7:20 AM)65% (Nov 25, 3:20 PM)29.27 "Hg (Nov 20, 11:20 AM)
Average38 °F89%29.75 "Hg
* Reported Nov 13 8:20 AM — Nov 28 8:20 AM, Kaunas, Weather by CustomWeather, © 2015

Note: Actual official high and low records may vary slightly from our data, if they occured in-between our weather recording intervals... More about our weather records


Kaunas weather history for previous 24 hours

Time TempWeatherWind HumidityBarometerVisibility
8:20 AM
Sat, Nov 28
27 °FIce fog.8 mph86%29.95 "Hg2 mi
7:50 AM25 °FLow clouds.9 mph93%29.95 "Hg4 mi
7:20 AM25 °FIce fog.9 mph93%29.95 "Hg3 mi
6:50 AM27 °FIce fog.8 mph86%29.95 "Hg3 mi
6:20 AM27 °FLow clouds.8 mph93%29.95 "Hg4 mi
5:50 AM28 °FLow clouds.7 mph86%29.98 "Hg4 mi
5:20 AM28 °FLow clouds.10 mph86%29.98 "Hg4 mi
4:50 AM28 °FLow clouds.9 mph93%29.98 "Hg4 mi
4:20 AM28 °FLow clouds.8 mph93%30.01 "Hg4 mi
3:50 AM28 °FLow clouds.9 mph86%30.01 "Hg6 mi
3:20 AM30 °FOvercast.9 mph86%30.01 "HgN/A
1:50 AM30 °FOvercast.10 mph80%30.04 "HgN/A
1:03 AM30 °FOvercast.9 mph80%30.04 "HgN/A
12:20 AM30 °FOvercast.10 mph80%30.04 "HgN/A
11:50 PM
Fri, Nov 27
30 °FOvercast.13 mph86%30.07 "HgN/A
11:20 PM30 °FOvercast.12 mph86%30.07 "HgN/A
10:50 PM30 °FOvercast.10 mph86%30.07 "HgN/A
10:20 PM30 °FOvercast.12 mph86%30.07 "HgN/A
9:50 PM30 °FOvercast.9 mph86%30.07 "HgN/A
9:20 PM30 °FPassing clouds.9 mph86%30.07 "Hg6 mi
8:50 PM30 °FPassing clouds.10 mph86%30.07 "Hg6 mi
8:20 PM32 °FClear.10 mph87%30.07 "Hg4 mi
7:50 PM32 °FOvercast.12 mph87%30.07 "Hg4 mi
7:20 PM32 °FOvercast.10 mph87%30.07 "Hg4 mi
6:50 PM32 °FOvercast.9 mph87%30.07 "Hg4 mi
6:20 PM32 °FOvercast.9 mph87%30.07 "Hg4 mi
5:50 PM32 °FIce fog.12 mph87%30.09 "Hg3 mi
5:20 PM30 °FIce fog.9 mph93%30.09 "Hg3 mi
4:50 PM32 °FPassing clouds.10 mph87%30.09 "Hg4 mi
4:20 PM32 °FLow clouds.12 mph87%30.09 "Hg4 mi
3:50 PM32 °FScattered clouds.9 mph87%30.09 "Hg4 mi
3:20 PM32 °FPartly sunny.10 mph87%30.07 "Hg4 mi
2:50 PM32 °FIce fog.12 mph87%30.09 "Hg3 mi
2:20 PM32 °FIce fog.13 mph87%30.09 "Hg2 mi
1:50 PM32 °FIce fog.10 mph87%30.09 "Hg2 mi
1:20 PM32 °FIce fog.9 mph93%30.09 "Hg2 mi
12:50 PM32 °FIce fog.9 mph87%30.09 "Hg2 mi
12:20 PM32 °FIce fog.8 mph87%30.09 "Hg2 mi
11:50 AM30 °FIce fog.8 mph93%30.12 "Hg2 mi
11:20 AM30 °FIce fog.8 mph93%30.12 "Hg2 mi
10:50 AM30 °FIce fog.8 mph93%30.12 "Hg2 mi
10:20 AM30 °FIce fog.8 mph93%30.12 "Hg2 mi
Weather by CustomWeather, © 2015

See weather overviewHow to use our weather pages